Date String (YYYY-MM-DD hh:mm:ss) UTC,Instrument flags,Ambient pressure (hPa),Sample flow (lpm),Bypass flow (lpm),Sample temperature (°C),Ambient temperature (°C),ASC tube jacket temperature (°C),LED temperature (°C),Box temperature (°C),Sample RH (%),Span deviation,Mass concentration (μg/m³),Mass concentration (μg/m³),Mass concentration (μg/m³)
DateTimeUTC,F1_M11,P_M11,Q1_M11,Q2_M11,T1_M11,T2_M11,T3_M11,T4_M11,T5_M11,U1_M11,ZSPAN_M11,X0_M11,X2_M11,X1_M11
2022-03-17 12:00:00,,0825.3,5.00,0.00,23.0,22.8,00.0,31.9,24.8,18.7,0000.0,0000.73,0000.70,0000.70
2022-03-17 12:01:00,,0825.3,5.00,0.00,23.0,22.6,00.0,31.9,24.8,18.6,0000.0,0000.74,0000.71,0000.70
2022-03-17 12:02:00,,0825.3,5.00,0.00,23.0,22.5,00.0,31.9,24.8,18.6,0000.0,0000.74,0000.71,0000.71
2022-03-17 12:03:00,,0825.3,5.00,0.00,23.0,22.5,00.0,31.9,24.8,18.6,0000.0,0000.72,0000.71,0000.70
2022-03-17 12:04:00,,0825.3,5.01,0.00,23.0,22.4,00.0,31.9,24.7,18.6,0000.0,0000.71,0000.70,0000.70
2022-03-17 12:05:00,,0825.3,4.99,0.00,22.9,22.3,00.0,31.9,24.7,18.6,0000.0,0000.72,0000.72,0000.71
2022-03-17 12:06:00,,0825.4,5.00,0.00,22.9,22.3,00.0,31.9,24.7,18.6,0000.0,0000.75,0000.75,0000.73
2022-03-17 12:07:00,,0825.4,5.01,0.00,22.9,22.2,00.0,31.9,24.7,18.7,0000.0,0000.76,0000.76,0000.75
2022-03-17 12:08:00,,0825.4,5.00,0.00,22.9,22.2,00.0,31.9,24.6,18.7,0000.0,0000.77,0000.78,0000.76
2022-03-17 12:09:00,,0825.4,4.99,0.00,22.9,22.1,00.0,31.9,24.6,18.7,0000.0,0000.80,0000.82,0000.79
2022-03-17 12:10:00,,0825.4,5.00,0.00,22.8,22.0,00.0,31.9,24.6,18.7,0000.0,0000.83,0000.85,0000.82
2022-03-17 12:11:00,,0825.4,5.00,0.00,22.8,22.0,00.0,31.9,24.6,18.7,0000.0,0000.85,0000.88,0000.85
2022-03-17 12:12:00,,0825.4,5.00,0.00,22.8,22.0,00.0,31.8,24.5,18.7,0000.0,0000.87,0000.91,0000.88
2022-03-17 12:13:00,,0825.5,5.00,0.00,22.8,22.0,00.0,31.8,24.5,18.8,0000.0,0000.89,0000.94,0000.91
2022-03-17 12:14:00,,0825.5,5.01,0.00,22.8,22.0,00.0,31.8,24.5,18.8,0000.0,0000.93,0000.98,0000.95
2022-03-17 12:15:00,,0825.5,5.02,0.00,22.7,21.9,00.0,31.8,24.5,18.8,0000.0,0000.97,0001.02,0000.99
2022-03-17 12:16:00,,0825.5,5.00,0.00,22.7,21.9,00.0,31.8,24.5,18.8,0000.0,0000.98,0001.05,0001.02
2022-03-17 12:17:00,,0825.5,4.99,0.00,22.7,21.9,00.0,31.8,24.4,18.9,0000.0,0000.97,0001.05,0001.03
2022-03-17 12:18:00,,0825.5,5.01,0.00,22.7,21.9,00.0,31.8,24.4,18.9,0000.0,0000.98,0001.07,0001.06
2022-03-17 12:19:00,,0825.5,4.99,0.00,22.7,21.9,00.0,31.8,24.4,18.9,0000.0,0000.99,0001.10,0001.08
2022-03-17 12:20:00,,0825.5,5.00,0.00,22.7,21.8,00.0,31.7,24.4,18.9,0000.0,0001.14,0001.13,0001.10
2022-03-17 12:21:00,,0825.5,5.00,0.00,22.6,21.8,00.0,31.7,24.3,18.9,0000.0,0001.28,0001.13,0001.11
2022-03-17 12:22:00,,0825.5,5.01,0.00,22.6,21.8,00.0,31.7,24.3,18.9,0000.0,0001.29,0001.14,0001.12
2022-03-17 12:23:00,,0825.5,4.99,0.00,22.6,21.8,00.0,31.7,24.3,18.9,0000.0,0001.30,0001.15,0001.13
2022-03-17 12:24:00,,0825.5,5.01,0.00,22.6,21.7,00.0,31.7,24.3,19.0,0000.0,0001.31,0001.16,0001.14
2022-03-17 12:25:00,,0825.5,4.99,0.00,22.6,21.9,00.0,31.7,24.3,19.0,0000.0,0001.31,0001.16,0001.14
2022-03-17 12:26:00,,0825.5,5.00,0.00,22.7,22.5,00.0,31.7,24.5,18.9,0000.0,0001.30,0001.17,0001.14
2022-03-17 12:27:00,,0825.6,5.00,0.00,22.8,23.3,00.0,31.7,24.8,18.7,0000.0,0001.32,0001.19,0001.16
2022-03-17 12:28:00,,0825.6,4.99,0.00,22.9,23.4,00.0,31.8,24.9,18.6,0000.0,0001.37,0001.23,0001.18
2022-03-17 12:29:00,,0825.6,4.99,0.00,22.9,23.2,00.0,31.8,24.9,18.5,0000.0,0001.39,0001.25,0001.21
2022-03-17 12:30:00,,0825.6,4.99,0.00,23.0,23.0,00.0,31.8,24.9,18.5,0000.0,0001.43,0001.29,0001.24
2022-03-17 12:31:00,,0825.6,5.01,0.00,22.9,22.8,00.0,31.8,24.8,18.5,0000.0,0001.41,0001.31,0001.27
2022-03-17 12:32:00,,0825.6,5.00,0.00,22.9,22.6,00.0,31.8,24.8,18.5,0000.0,0001.19,0001.33,0001.29
2022-03-17 12:33:00,,0825.6,5.00,0.00,22.9,22.5,00.0,31.8,24.7,18.5,0000.0,0001.21,0001.36,0001.32
2022-03-17 12:34:00,,0825.6,4.99,0.00,22.9,22.4,00.0,31.8,24.7,18.5,0000.0,0001.21,0001.38,0001.34
2022-03-17 12:35:00,,0825.7,5.01,0.00,22.9,22.3,00.0,31.8,24.6,18.6,0000.0,0001.24,0001.41,0001.38
2022-03-17 12:36:00,,0825.7,4.99,0.00,22.9,22.2,00.0,31.8,24.6,18.6,0000.0,0001.28,0001.45,0001.41
2022-03-17 12:37:00,,0825.7,4.99,0.00,22.8,22.2,00.0,31.8,24.6,18.6,0000.0,0001.30,0001.48,0001.45
2022-03-17 12:38:00,,0825.8,5.00,0.00,22.8,22.1,00.0,31.8,24.6,18.6,0000.0,0001.32,0001.50,0001.47
2022-03-17 12:39:00,,0825.9,4.99,0.00,22.8,22.1,00.0,31.8,24.6,18.6,0000.0,0001.30,0001.50,0001.48
2022-03-17 12:40:00,,0825.9,5.02,0.00,22.8,22.0,00.0,31.8,24.5,18.7,0000.0,0001.29,0001.48,0001.47
2022-03-17 12:41:00,,0825.9,5.00,0.00,22.8,22.0,00.0,31.8,24.5,18.7,0000.0,0001.26,0001.45,0001.45
2022-03-17 12:42:00,,0825.9,5.00,0.00,22.7,21.9,00.0,31.8,24.5,18.7,0000.0,0001.22,0001.41,0001.40
2022-03-17 12:43:00,,0826.0,4.99,0.00,22.7,21.9,00.0,31.8,24.4,18.7,0000.0,0001.22,0001.37,0001.36
2022-03-17 12:44:00,,0826.0,5.01,0.00,22.7,21.9,00.0,31.8,24.4,18.7,0000.0,0001.17,0001.31,0001.29
2022-03-17 12:45:00,,0826.0,4.99,0.00,22.7,21.8,00.0,31.7,24.4,18.7,0000.0,0001.14,0001.25,0001.24
2022-03-17 12:46:00,,0826.0,5.00,0.00,22.6,21.8,00.0,31.7,24.3,18.7,0000.0,0001.08,0001.17,0001.16
2022-03-17 12:47:00,,0826.0,5.00,0.00,22.6,21.8,00.0,31.7,24.3,18.7,0000.0,0001.01,0001.09,0001.07
2022-03-17 12:48:00,,0826.1,5.00,0.00,22.6,21.7,00.0,31.7,24.3,18.7,0000.0,0000.94,0001.00,0000.98
2022-03-17 12:49:00,,0826.1,4.99,0.00,22.6,21.7,00.0,31.7,24.3,18.7,0000.0,0000.88,0000.91,0000.90
2022-03-17 12:50:00,,0826.1,5.01,0.00,22.6,21.7,00.0,31.6,24.3,18.7,0000.0,0000.82,0000.84,0000.83
2022-03-17 12:51:00,,0826.1,5.01,0.00,22.5,21.7,00.0,31.6,24.3,18.7,0000.0,0000.78,0000.79,0000.77
2022-03-17 12:52:00,,0826.1,5.00,0.00,22.5,21.7,00.0,31.6,24.2,18.8,0000.0,0000.74,0000.74,0000.72
2022-03-17 12:53:00,,0826.1,4.99,0.00,22.5,21.7,00.0,31.6,24.2,18.8,0000.0,0000.72,0000.71,0000.69
2022-03-17 12:54:00,,0826.1,5.00,0.00,22.5,21.7,00.0,31.6,24.2,18.8,0000.0,0000.69,0000.67,0000.66
2022-03-17 12:55:00,,0826.1,5.01,0.00,22.5,21.7,00.0,31.6,24.2,18.8,0000.0,0000.66,0000.66,0000.65
2022-03-17 12:56:00,,0826.2,5.00,0.00,22.5,21.7,00.0,31.6,24.2,18.8,0000.0,0000.64,0000.64,0000.63
2022-03-17 12:57:00,,0826.1,5.00,0.00,22.4,21.7,00.0,31.5,24.1,18.8,0000.0,0000.62,0000.63,0000.62
2022-03-17 12:58:00,,0826.1,5.01,0.00,22.4,21.6,00.0,31.5,24.1,18.8,0000.0,0000.61,0000.63,0000.63
2022-03-17 12:59:00,,0826.1,5.00,0.00,22.4,21.6,00.0,31.5,24.1,18.8,0000.0,0000.67,0000.67,0000.64
